KF4PPJ Weather Reports


time (UTC)temp
C
wind
direction
speed
KPH
gust
KPH
rain 1hr
cm
rain 24hr
cm
rain mn
cm
humidity
%
barometer
mb
20260508115435 10 158 3.2 3.2 0.00 0.00 0.00 83 1020.4
20260508114931 10 216 3.2 4.8 0.00 0.00 0.00 84 1020.2
20260508114428 10 186 3.2 8.0 0.00 0.00 0.00 84 1020.2
20260508113924 10 182 1.6 8.0 0.00 0.00 0.00 84 1020.5
20260508113422 10 192 8.0 8.0 0.00 0.00 0.00 85 1020.3
20260508112919 10 180 3.2 8.0 0.00 0.00 0.00 85 1020.3
20260508112416 10 174 1.6 8.0 0.00 0.00 0.00 84 1020.1
20260508111913 10 188 4.8 8.0 0.00 0.00 0.00 84 1019.8
20260508111410 10 224 8.0 11.3 0.00 0.00 0.00 84 1020.1
20260508110907 10 185 1.6 3.2 0.00 0.00 0.00 85 1020.2
20260508110405 10 212 6.4 8.0 0.00 0.00 0.00 85 1020.1
20260508105904 10 140 4.8 4.8 0.00 0.00 0.00 86 1019.9
20260508105400 10 191 3.2 4.8 0.00 0.00 0.00 87 1019.6
20260508104858 10 176 3.2 3.2 0.00 0.00 0.00 88 1020.0
20260508104355 10 146 0.0 3.2 0.00 0.00 0.00 90 1019.6
20260508103852 10 182 3.2 4.8 0.00 0.00 0.00 92 1019.7
20260508103349 10 179 3.2 4.8 0.00 0.00 0.00 93 1019.7
20260508102846 10 167 1.6 4.8 0.00 0.00 0.00 94 1019.6
20260508102344 9 167 3.2 4.8 0.00 0.00 0.00 95 1019.3
20260508101841 9 184 0.0 1.6 0.00 0.00 0.00 95 1019.8
20260508101339 8 163 0.0 0.0 0.00 0.00 0.00 95 1019.7
20260508100836 8 164 0.0 3.2 0.00 0.00 0.00 95 1019.8
20260508100335 8 150 0.0 0.0 0.00 0.00 0.00 95 1019.5
20260508095830 8 156 0.0 0.0 0.00 0.00 0.00 95 1019.5
20260508095328 8 159 0.0 0.0 0.00 0.00 0.00 95 1019.6
20260508094825 8 152 0.0 0.0 0.00 0.00 0.00 95 1019.3
20260508094322 8 152 0.0 0.0 0.00 0.00 0.00 94 1019.8
20260508093819 8 154 0.0 0.0 0.00 0.00 0.00 94 1019.5
20260508093316 8 155 0.0 0.0 0.00 0.00 0.00 94 1019.6
20260508092813 8 155 0.0 0.0 0.00 0.00 0.00 94 1019.5
20260508092313 8 149 0.0 0.0 0.00 0.00 0.00 94 1019.6
20260508091809 8 155 0.0 0.0 0.00 0.00 0.00 94 1019.5
20260508091305 8 151 0.0 0.0 0.00 0.00 0.00 94 1019.5
20260508090803 8 151 0.0 0.0 0.00 0.00 0.00 94 1019.7
20260508090301 8 149 0.0 0.0 0.00 0.00 0.00 94 1019.3
20260508085757 8 149 0.0 0.0 0.00 0.00 0.00 93 1019.5
20260508085254 9 149 0.0 0.0 0.00 0.00 0.00 93 1019.5
20260508084750 9 149 0.0 0.0 0.00 0.00 0.00 93 1019.4
20260508084247 9 149 0.0 0.0 0.00 0.00 0.00 93 1019.2
20260508083745 9 149 0.0 0.0 0.00 0.00 0.00 93 1019.3
20260508083243 9 149 0.0 0.0 0.00 0.00 0.00 93 1019.3
20260508082742 9 149 0.0 0.0 0.00 0.00 0.00 93 1019.4
20260508082240 9 148 0.0 0.0 0.00 0.00 0.00 92 1019.1
20260508081737 9 149 0.0 0.0 0.00 0.00 0.00 92 1019.2
20260508081234 9 148 0.0 0.0 0.00 0.00 0.00 92 1019.3
20260508080731 9 149 0.0 0.0 0.00 0.00 0.00 92 1019.5
20260508080229 9 148 0.0 0.0 0.00 0.00 0.00 91 1019.2
20260508075725 9 148 0.0 0.0 0.00 0.00 0.00 91 1019.3
20260508075222 9 154 0.0 0.0 0.00 0.00 0.00 91 1019.4
20260508074720 9 148 0.0 0.0 0.00 0.00 0.00 91 1019.1
20260508074218 9 137 0.0 0.0 0.00 0.00 0.00 91 1019.3
20260508073714 9 136 0.0 0.0 0.00 0.00 0.00 91 1019.1
20260508073212 9 148 0.0 0.0 0.00 0.00 0.00 90 1019.3
20260508072708 9 152 0.0 0.0 0.00 0.00 0.00 90 1019.4
20260508072205 9 145 0.0 0.0 0.00 0.00 0.00 90 1019.3
20260508071702 9 145 0.0 0.0 0.00 0.00 0.00 89 1019.5
20260508071201 9 163 0.0 0.0 0.00 0.00 0.00 89 1019.4
20260508070657 9 145 0.0 0.0 0.00 0.00 0.00 89 1019.5
20260508070156 9 149 0.0 0.0 0.00 0.00 0.00 89 1019.5
20260508065653 9 149 0.0 0.0 0.00 0.00 0.00 88 1019.5
20260508065151 10 148 0.0 0.0 0.00 0.00 0.00 88 1019.6
20260508064648 10 149 0.0 0.0 0.00 0.00 0.00 87 1019.5
20260508064146 10 149 0.0 0.0 0.00 0.00 0.00 87 1019.5
20260508063643 10 148 0.0 0.0 0.00 0.00 0.00 87 1019.3
20260508063141 10 148 0.0 0.0 0.00 0.00 0.00 87 1019.3
20260508062638 10 149 0.0 0.0 0.00 0.00 0.00 87 1019.2
20260508062135 10 148 0.0 0.0 0.00 0.00 0.00 88 1019.2
20260508061632 10 148 0.0 0.0 0.00 0.00 0.00 88 1019.4
20260508061130 10 149 0.0 0.0 0.00 0.00 0.00 88 1019.3
20260508060626 10 149 0.0 0.0 0.00 0.00 0.00 87 1019.4
20260508060124 10 149 0.0 0.0 0.00 0.00 0.00 87 1019.4
20260508055619 10 149 0.0 0.0 0.00 0.00 0.00 86 1019.5
20260508055116 10 148 0.0 0.0 0.00 0.00 0.00 86 1019.1
20260508054613 10 157 0.0 0.0 0.00 0.00 0.00 85 1019.5
20260508054110 10 165 0.0 0.0 0.00 0.00 0.00 85 1019.5
20260508053607 10 149 0.0 0.0 0.00 0.00 0.00 85 1019.5
20260508053105 10 149 0.0 0.0 0.00 0.00 0.00 84 1019.4
20260508052602 11 149 0.0 0.0 0.00 0.00 0.00 84 1019.4
20260508052059 11 149 0.0 0.0 0.00 0.00 0.00 83 1019.5
20260508051555 11 149 0.0 0.0 0.00 0.00 0.00 83 1019.4
20260508051050 11 149 0.0 0.0 0.00 0.00 0.00 83 1019.7
20260508050547 11 149 0.0 0.0 0.00 0.00 0.00 83 1019.5
20260508050044 11 149 0.0 0.0 0.00 0.00 0.00 83 1019.5
20260508045540 11 149 0.0 0.0 0.00 0.00 0.00 83 1019.6
20260508045038 11 149 0.0 0.0 0.00 0.00 0.00 82 1019.5
20260508044535 11 149 0.0 0.0 0.00 0.00 0.00 82 1019.6
20260508044031 11 149 0.0 0.0 0.00 0.00 0.00 82 1019.8
20260508043528 11 149 0.0 0.0 0.00 0.00 0.00 81 1019.7
20260508043026 11 149 0.0 0.0 0.00 0.00 0.00 80 1019.7
20260508042522 11 149 0.0 0.0 0.00 0.00 0.00 80 1019.7
20260508042020 12 149 0.0 0.0 0.00 0.00 0.00 80 1019.7
20260508041515 12 149 0.0 0.0 0.00 0.00 0.00 80 1019.6
20260508041012 12 149 0.0 0.0 0.00 0.00 0.00 79 1019.7
20260508040509 12 149 0.0 0.0 0.00 0.00 0.00 79 1019.7
20260508040007 12 149 0.0 0.0 0.00 0.00 0.00 79 1019.5
20260508035504 12 149 0.0 0.0 0.00 0.00 0.00 79 1019.8
20260508035000 12 149 0.0 0.0 0.00 0.00 0.00 78 1019.5
20260508034458 13 149 0.0 0.0 0.00 0.00 0.00 77 1019.6
20260508033954 13 149 0.0 0.0 0.00 0.00 0.00 76 1019.3
20260508033452 13 149 0.0 0.0 0.00 0.00 0.00 75 1019.4
20260508032950 13 149 0.0 0.0 0.00 0.00 0.00 74 1019.5
20260508032447 13 149 0.0 0.0 0.00 0.00 0.00 72 1019.4
20260508031944 14 149 0.0 0.0 0.00 0.00 0.00 71 1019.2
20260508031441 14 149 0.0 0.0 0.00 0.00 0.00 71 1019.4
20260508030937 14 149 0.0 0.0 0.00 0.00 0.00 70 1019.5
20260508030434 15 149 0.0 0.0 0.00 0.00 0.00 70 1019.4
20260508025931 15 150 0.0 0.0 0.00 0.00 0.00 69 1019.3
20260508025428 15 148 0.0 0.0 0.00 0.00 0.00 69 1019.4
20260508024919 15 150 0.0 0.0 0.00 0.00 0.00 69 1019.4
20260508024416 15 138 0.0 0.0 0.00 0.00 0.00 68 1019.5
20260508023913 16 157 0.0 0.0 0.00 0.00 0.00 68 1019.7
20260508023410 16 150 0.0 0.0 0.00 0.00 0.00 66 1019.5
20260508022906 17 158 0.0 0.0 0.00 0.00 0.00 62 1019.6
20260508022401 17 161 0.0 1.6 0.00 0.00 0.00 61 1019.6
20260508021858 17 164 0.0 3.2 0.00 0.00 0.00 60 1019.5
20260508021349 17 164 3.2 3.2 0.00 0.00 0.00 59 1019.7
20260508020845 17 168 1.6 3.2 0.00 0.00 0.00 54 1019.7
20260508020343 17 215 4.8 8.0 0.00 0.00 0.00 55 1019.8
20260508015840 17 199 3.2 3.2 0.00 0.00 0.00 57 1019.6
20260508015338 17 171 4.8 9.7 0.00 0.00 0.00 57 1020.0
20260508014834 17 172 4.8 11.3 0.00 0.00 0.00 56 1019.8
20260508014332 17 183 1.6 4.8 0.00 0.00 0.00 56 1019.8
20260508013831 17 151 3.2 8.0 0.00 0.00 0.00 55 1020.1
20260508013328 17 173 1.6 3.2 0.00 0.00 0.00 56 1019.9
20260508012826 17 155 1.6 3.2 0.00 0.00 0.00 54 1020.0
20260508012323 18 169 3.2 3.2 0.00 0.00 0.00 52 1020.1
20260508011820 18 196 4.8 8.0 0.00 0.00 0.00 51 1020.0
20260508011318 18 208 3.2 4.8 0.00 0.00 0.00 51 1019.9
20260508010815 18 206 4.8 4.8 0.00 0.00 0.00 53 1020.0
20260508010313 18 171 3.2 4.8 0.00 0.00 0.00 53 1020.1
20260508005809 18 209 4.8 8.0 0.00 0.00 0.00 53 1020.2
20260508005306 18 194 1.6 8.0 0.00 0.00 0.00 53 1020.3
20260508004802 18 216 6.4 8.0 0.00 0.00 0.00 52 1020.4
20260508004258 18 199 1.6 4.8 0.00 0.00 0.00 52 1020.5
20260508003755 18 219 3.2 4.8 0.00 0.00 0.00 52 1020.2
20260508003253 18 208 4.8 8.0 0.00 0.00 0.00 52 1020.3
20260508002748 18 198 3.2 4.8 0.00 0.00 0.00 52 1020.3
20260508002246 18 212 4.8 8.0 0.00 0.00 0.00 51 1020.6
20260508001742 18 153 8.0 9.7 0.00 0.00 0.00 52 1020.5
20260508001237 18 163 0.0 3.2 0.00 0.00 0.00 53 1020.5
20260508000734 18 193 0.0 3.2 0.00 0.00 0.00 53 1020.5
20260508000234 18 154 8.0 11.3 0.00 0.00 0.00 51 1020.7
20260507235727 18 160 4.8 8.0 0.00 0.00 0.00 52 1020.6
20260507235225 18 103 4.8 8.0 0.00 0.00 0.00 51 1020.7
20260507234722 18 249 4.8 8.0 0.00 0.00 0.00 51 1020.6
20260507234219 18 195 4.8 4.8 0.00 0.00 0.00 51 1020.7
20260507233715 18 223 4.8 16.1 0.00 0.00 0.00 53 1020.7
20260507233213 18 212 1.6 4.8 0.00 0.00 0.00 52 1020.9
20260507232710 19 263 4.8 11.3 0.00 0.00 0.00 53 1021.0
20260507232207 18 205 4.8 16.1 0.00 0.00 0.00 53 1020.5
20260507231704 17 222 9.7 12.9 0.00 0.00 0.00 53 1020.9
20260507231201 17 197 6.4 11.3 0.00 0.00 0.00 53 1020.9
20260507230657 18 225 11.3 14.5 0.00 0.00 0.00 53 1021.2
20260507230155 17 215 4.8 9.7 0.00 0.00 0.00 53 1020.9
20260507225654 17 199 6.4 11.3 0.00 0.00 0.00 55 1021.1
20260507225151 17 243 4.8 11.3 0.00 0.00 0.00 55 1021.2
20260507224646 17 210 6.4 9.7 0.00 0.00 0.00 54 1021.2
20260507224143 18 139 6.4 11.3 0.00 0.00 0.00 52 1021.1
20260507223639 18 259 4.8 4.8 0.00 0.00 0.00 52 1021.4
20260507223137 17 190 3.2 8.0 0.00 0.00 0.00 53 1021.4
20260507222634 17 204 9.7 14.5 0.00 0.00 0.00 55 1021.4
20260507222130 17 221 4.8 11.3 0.00 0.00 0.00 55 1021.6
20260507221626 17 195 6.4 16.1 0.00 0.00 0.00 54 1021.5
20260507221123 17 233 6.4 8.0 0.00 0.00 0.00 56 1021.5
20260507220620 17 229 11.3 14.5 0.00 0.00 0.00 55 1021.6
20260507220118 16 184 8.0 11.3 0.00 0.00 0.00 55 1021.8
20260507215613 17 247 9.7 16.1 0.00 0.00 0.00 54 1021.5
20260507215112 16 249 9.7 14.5 0.00 0.00 0.00 55 1021.6
20260507214608 17 231 8.0 11.3 0.00 0.00 0.00 53 1021.6
20260507214104 17 186 8.0 9.7 0.00 0.00 0.00 55 1021.9
20260507213601 17 216 4.8 12.9 0.00 0.00 0.00 56 1021.8
20260507213058 17 219 4.8 12.9 0.00 0.00 0.00 56 1021.6
20260507212554 17 185 8.0 12.9 0.00 0.00 0.00 55 1021.7
20260507212051 17 205 4.8 11.3 0.00 0.00 0.00 56 1021.8
20260507211547 17 194 11.3 12.9 0.00 0.00 0.00 56 1022.0
20260507211043 17 196 12.9 14.5 0.00 0.00 0.00 56 1022.0
20260507210541 16 147 4.8 14.5 0.00 0.00 0.00 56 1022.0
20260507210038 16 218 8.0 11.3 0.00 0.00 0.00 56 1022.0
20260507205534 16 164 11.3 12.9 0.00 0.00 0.00 56 1022.3
20260507205031 16 223 4.8 8.0 0.00 0.00 0.00 57 1022.4
20260507204527 16 175 8.0 11.3 0.00 0.00 0.00 56 1022.4
20260507204025 16 181 6.4 9.7 0.00 0.00 0.00 57 1022.4
20260507203523 16 214 6.4 9.7 0.00 0.00 0.00 57 1022.5
20260507203020 16 213 4.8 11.3 0.00 0.00 0.00 56 1022.5
20260507202515 16 220 4.8 8.0 0.00 0.00 0.00 57 1022.6
20260507202012 16 248 8.0 9.7 0.00 0.00 0.00 59 1022.5
20260507201508 16 214 6.4 16.1 0.00 0.00 0.00 58 1022.8
20260507201004 16 225 4.8 12.9 0.00 0.00 0.00 59 1022.7
20260507200459 15 209 4.8 8.0 0.00 0.00 0.00 59 1022.7
20260507195955 15 162 4.8 9.7 0.00 0.00 0.00 59 1022.8
20260507195453 15 210 4.8 8.0 0.00 0.00 0.00 59 1022.7
20260507194950 15 239 4.8 9.7 0.00 0.00 0.00 59 1022.8
20260507194447 15 191 9.7 12.9 0.00 0.00 0.00 57 1022.8
20260507193942 15 222 4.8 9.7 0.00 0.00 0.00 58 1022.8
20260507193440 15 192 4.8 8.0 0.00 0.00 0.00 63 1022.8
20260507192937 14 178 6.4 8.0 0.00 0.00 0.00 63 1023.0
20260507192432 14 192 3.2 8.0 0.00 0.00 0.00 64 1022.8
20260507191930 14 202 4.8 8.0 0.00 0.00 0.00 65 1023.1
20260507191426 15 202 4.8 4.8 0.00 0.00 0.00 64 1023.0
20260507190922 14 206 4.8 8.0 0.00 0.00 0.00 66 1022.9
20260507190420 14 150 8.0 11.3 0.00 0.00 0.00 66 1023.1
20260507185919 14 283 9.7 11.3 0.00 0.00 0.00 64 1023.2
20260507185416 14 195 4.8 8.0 0.00 0.00 0.00 65 1023.0
20260507184913 14 172 4.8 9.7 0.00 0.00 0.00 65 1023.3
20260507184410 15 174 8.0 9.7 0.00 0.00 0.00 65 1023.2
20260507183908 15 192 6.4 9.7 0.00 0.00 0.00 61 1023.2
20260507183404 15 195 4.8 12.9 0.00 0.00 0.00 62 1023.3
20260507182902 15 152 1.6 9.7 0.00 0.00 0.00 63 1023.3
20260507182357 14 171 3.2 8.0 0.00 0.00 0.00 68 1023.2
20260507181854 15 237 4.8 9.7 0.00 0.00 0.00 65 1023.4
20260507181350 14 159 3.2 12.9 0.00 0.00 0.00 66 1023.3
20260507180847 13 127 4.8 8.0 0.00 0.00 0.00 68 1023.4
20260507180344 13 148 11.3 16.1 0.00 0.00 0.00 68 1023.4
20260507175839 13 189 6.4 9.7 0.00 0.00 0.00 70 1023.6
20260507175337 13 246 8.0 11.3 0.00 0.00 0.00 70 1023.6
20260507174834 13 209 4.8 4.8 0.00 0.00 0.00 71 1023.7
20260507174331 12 199 3.2 4.8 0.00 0.00 0.00 72 1023.5
20260507173829 12 249 6.4 9.7 0.00 0.00 0.00 71 1023.6
20260507173326 12 207 4.8 9.7 0.00 0.00 0.00 72 1023.4
20260507172822 13 190 3.2 9.7 0.00 0.00 0.00 71 1023.5
20260507172319 13 190 6.4 11.3 0.00 0.00 0.00 70 1023.3
20260507171814 13 171 8.0 17.7 0.00 0.00 0.00 69 1023.4
20260507171312 13 187 4.8 8.0 0.00 0.00 0.00 70 1023.5
20260507170809 13 206 4.8 8.0 0.00 0.00 0.00 72 1023.4
20260507170305 13 169 1.6 11.3 0.00 0.00 0.00 71 1023.5
20260507165801 13 256 4.8 9.7 0.00 0.00 0.00 72 1023.3
20260507165257 12 156 1.6 14.5 0.00 0.00 0.00 71 1023.4
20260507164753 12 222 4.8 4.8 0.00 0.00 0.00 72 1023.5
20260507164251 12 178 4.8 9.7 0.00 0.00 0.00 73 1023.6
20260507163748 12 189 4.8 9.7 0.00 0.00 0.00 73 1023.6
20260507163246 12 220 8.0 16.1 0.00 0.00 0.00 72 1023.6
20260507162741 12 172 8.0 11.3 0.00 0.00 0.00 74 1023.5
20260507162237 12 246 11.3 17.7 0.00 0.00 0.00 74 1023.4
20260507161734 12 241 4.8 8.0 0.00 0.00 0.00 74 1023.6
20260507161231 12 223 4.8 9.7 0.00 0.00 0.00 73 1023.7
20260507160726 12 210 6.4 9.7 0.00 0.00 0.00 75 1023.8
20260507160223 12 139 9.7 11.3 0.00 0.00 0.00 74 1023.6
20260507155719 12 232 4.8 14.5 0.00 0.00 0.00 75 1023.8
20260507155215 11 205 9.7 14.5 0.00 0.00 0.00 75 1023.7
20260507154712 11 214 6.4 9.7 0.00 0.00 0.00 77 1023.8
20260507154210 11 131 8.0 11.3 0.00 0.00 0.00 77 1023.6
20260507153707 11 174 6.4 9.7 0.00 0.00 0.00 79 1023.7
20260507153203 11 201 4.8 11.3 0.00 0.00 0.00 78 1024.0
20260507152659 11 212 6.4 9.7 0.00 0.00 0.00 78 1023.8
20260507152155 11 133 3.2 9.7 0.00 0.00 0.00 78 1023.7
20260507151651 11 134 8.0 9.7 0.00 0.00 0.00 78 1023.8
20260507151148 11 220 8.0 12.9 0.00 0.00 0.00 78 1023.8
20260507150645 11 212 6.4 9.7 0.00 0.00 0.00 77 1023.7
20260507150142 11 184 3.2 9.7 0.00 0.00 0.00 77 1023.6
20260507145637 11 229 4.8 8.0 0.00 0.00 0.00 78 1023.7
20260507145135 11 192 4.8 11.3 0.00 0.00 0.00 78 1023.9
20260507144631 11 195 4.8 11.3 0.00 0.00 0.00 78 1023.8
20260507144130 11 184 4.8 9.7 0.00 0.00 0.00 79 1023.7
20260507143626 11 206 4.8 9.7 0.00 0.00 0.00 79 1023.7
20260507143123 11 228 8.0 9.7 0.00 0.00 0.00 79 1023.6
20260507142618 11 217 6.4 9.7 0.00 0.00 0.00 80 1023.9
20260507142116 11 160 4.8 4.8 0.00 0.00 0.00 80 1023.7
20260507141612 11 230 3.2 4.8 0.00 0.00 0.00 79 1023.8
20260507141109 11 156 1.6 1.6 0.00 0.00 0.00 80 1023.7
20260507140605 11 175 1.6 3.2 0.00 0.00 0.00 80 1023.7
20260507135600 11 232 4.8 4.8 0.00 0.00 0.00 80 1023.6
20260507135057 11 162 3.2 8.0 0.00 0.00 0.00 80 1023.6
20260507134553 11 164 0.0 1.6 0.00 0.00 0.00 81 1023.6
20260507134050 11 178 6.4 8.0 0.00 0.00 0.00 81 1023.7
20260507133545 11 175 1.6 4.8 0.00 0.00 0.00 82 1023.3
20260507133044 11 179 1.6 3.2 0.00 0.00 0.00 82 1023.4
20260507132540 11 184 1.6 3.2 0.00 0.00 0.00 83 1023.4
20260507132036 10 171 1.6 3.2 0.00 0.00 0.00 82 1023.3
20260507131533 10 162 3.2 3.2 0.00 0.00 0.00 82 1023.4
20260507131031 10 188 3.2 8.0 0.00 0.00 0.00 82 1023.5
20260507130527 10 160 0.0 0.0 0.00 0.00 0.00 82 1023.4
20260507130026 10 167 1.6 3.2 0.00 0.00 0.00 82 1023.5
20260507125524 10 160 0.0 1.6 0.00 0.00 0.00 83 1023.4
20260507125021 10 161 0.0 3.2 0.00 0.00 0.00 83 1023.3
20260507124517 10 162 0.0 0.0 0.00 0.00 0.00 83 1023.6
20260507124015 10 146 0.0 1.6 0.00 0.00 0.00 84 1023.5
20260507123513 10 146 0.0 0.0 0.00 0.00 0.00 83 1023.5
20260507123010 10 167 0.0 1.6 0.00 0.00 0.00 82 1023.6
20260507122504 10 191 1.6 3.2 0.00 0.00 0.00 83 1023.8
20260507122001 10 163 0.0 1.6 0.00 0.00 0.00 83 1023.4
20260507121456 10 155 0.0 1.6 0.00 0.00 0.00 83 1023.5
20260507120953 10 97 1.6 1.6 0.00 0.00 0.00 83 1023.6
20260507120449 10 151 0.0 0.0 0.00 0.00 0.00 84 1023.5
20260507115946 10 151 0.0 1.6 0.00 0.00 0.00 84 1023.8